Regional Weather Roundup
Issued by NWS

Home | Current Version | Previous Version | Text Only | Print | Product List | Glossary Off
Versions: 1 2 3 4 5 6 7 8 9 10 11 12 13 14 15 16 17 18 19 20 21 22 23 24 25 26 27 28 29 30 31 32 33 34 35 36 37 38 39 40 41 42 43 44 45 46 47 48 49 50

000
ASUS45 KTFX 062110
RWRMT
MONTANA REGIONAL WEATHER ROUNDUP
NATIONAL WEATHER SERVICE GREAT FALLS MT
200 PM MST TUE DEC 06 2016

NOTE: "FAIR" INDICATES FEW OR NO CLOUDS BELOW 12000 FEET WITH NO
SIGNIFICANT WEATHER AND/OR OBSTRUCTIONS TO VISIBILITY.

MTZ001>007-043-062200-
WEST OF THE DIVIDE

CITY           SKY/WX    TMP DP  RH WIND       PRES   REMARKS
KALISPELL      SUNNY     16   4  59 NE25      30.03R WCI  -3
MISSOULA       PTSUNNY   19   6  57 SE13      29.98R WCI   6
BUTTE          CLOUDY     9   1  70 S18G26    29.81S WCI -10
MULLAN PASS    LGT SNOW  10   7  87 CALM      29.77R FOG
ANACONDA         N/A     10   3  72 N6        29.86S WCI   1
DEER LODGE       N/A     12   1  62 NW14      29.90F WCI  -3
EUREKA           N/A     16   7  67 SE3       30.08S
HAMILTON         N/A     21  12  68 N6        29.90S WCI  14
LIBBY            N/A     21  16  79 CALM      30.04S
PLAINS           N/A     25  11  55 CALM      30.02R
RONAN            N/A     23  12  62 CALM      30.01R
$$

MTZ008-052>055-062200-
SOUTHWEST MONTANA

CITY           SKY/WX    TMP DP  RH WIND       PRES   REMARKS
BOZEMAN        CLOUDY    14   5  67 N6        29.92S WCI   5
DILLON         CLOUDY    13   3  64 NE7       29.81S WCI   3
W YELLOWSTONE  CLOUDY    12  -2  52 CALM      29.72F
ENNIS          PTSUNNY   12   5  73 N15       29.86S HAZE    WCI  -4
THREE FORKS      N/A     14 -52   4 N8        29.94S WCI   3
TWIN BRIDGES     N/A     16   0  49 N15       29.84F WCI   1
$$

MTZ009-010-012-014-046-048-049-054-062200-
EAST SLOPES AND CENTRAL MONTANA

CITY           SKY/WX    TMP DP  RH WIND       PRES   REMARKS
CUT BANK       MOSUNNY   -1  -9  68 NW15      30.13S WCI -21
GREAT FALLS    CLOUDY     2  -5  72 N7        30.14S WCI -11
HELENA         CLOUDY     9  -3  58 NW9       30.05R WCI  -4
CHOTEAU          N/A      1  -8  66 MISG      30.14S
CONRAD           N/A      1  -7  69 W10       30.15S WCI -15
$$

MTZ011-013-016-021-045-047-050-051-062200-
NORTH CENTRAL MONTANA

CITY           SKY/WX    TMP DP  RH WIND       PRES   REMARKS
HAVRE          CLOUDY     4  -5  66 NW16      30.24S WCI -15
LEWISTOWN      CLOUDY     0  -5  79 W10       30.05R WCI -16
N BAR RANCH      N/A      7  -6  56 NW18      29.98S WCI -12
CHINOOK          N/A      1  -8  66 W15G22    30.24S WCI -18
$$

MTZ017>020-022>027-061-062-062200-
NORTHEAST MONTANA

CITY           SKY/WX    TMP DP  RH WIND       PRES   REMARKS
GLASGOW        MOSUNNY    4  -5  66 NW26G37   30.14R WCI -19
JORDAN           N/A      6  -3  66 NW20G25   30.12S WCI -14
SIDNEY         CLOUDY     5  -3  69 NW24G32   30.08S WCI -17
WOLF POINT     CLOUDY     6  -5  60 NW17      30.15S WCI -13
PLENTYWOOD       N/A      1  -4  78 NW26      30.01R WCI -23
POPLAR           N/A      5  -6  61 W18       30.12R WCI -15
SCOBEY           N/A      2 -10  57 NW22      30.04R WCI -20
$$

MTZ028>42-056>058-062200-
SOUTHCENTRAL AND SOUTHEAST MONTANA

CITY           SKY/WX    TMP DP  RH WIND       PRES   REMARKS
BAKER          CLOUDY     3  -4  72 W24       30.02S WCI -20
BILLINGS       FLURRIES  12   5  73 NE8       30.03S WCI   0
LIVINGSTON     CLOUDY    10   3  73 E10       29.92S WCI  -4
MILES CITY     PTSUNNY   11  -4  51 N20       30.11S WCI  -7
BIG TIMBER     CLOUDY    12   5  73 E8        29.97S WCI   1
EKALAKA          N/A      3  -7  63 W17       29.95F WCI -17
FORSYTH          N/A     10  -2  56 W7        30.11S WCI   0
LAUREL           N/A     14   1  56 N5        30.00F
ROUNDUP          N/A     15  -6  39 N8        29.95F WCI   4
$$

REGIONAL REPORTS...DAKOTAS

CITY           SKY/WX    TMP DP  RH WIND       PRES   REMARKS
WILLISTON      CLOUDY     5  -2  72 NW21      30.06R WCI -16
MINOT          HVY SNOW   9   4  80 W35G48    29.85R VSB 1/4 WCI -15
DICKINSON      MIX PCPN   2  -3  80 NW30G38   29.94R VSB 3/4 WCI -23
BEACH          LGT SNOW   1  -2  85 NW24G31   30.05R WCI -22
CROSBY         LGT SNOW   5   0  78 NW28G35   30.02R WCI -18
TIOGA          PTSUNNY    5   1  85 NW24G32   29.97R FOG     WCI -17
WATFORD CITY   CLOUDY     5   0  78 NW20G29   30.03R HAZE    WCI -15
BISMARCK       LGT SNOW   8   6  92 W29G44    29.90R FOG     WCI -15
GRAND FORKS    HVY SNOW  25  21  85 NW33G40   29.46R VSB 1/4 WCI   7
FARGO          SNOW      20  16  84 W37G48    29.52R VSB 1/4 WCI   0
BUFFALO SD       N/A      8  -2  63 NW30G37   29.90R WCI -15
RAPID CITY     SUNNY     19   2  47 N23G32    29.95S WCI   2
$$

REGIONAL REPORTS...WYOMING/IDAHO/WASHINGTON

CITY           SKY/WX    TMP DP  RH WIND       PRES   REMARKS
GILLETTE       CLOUDY     8   2  76 W9        29.96S WCI  -5
SHERIDAN       CLOUDY    10   2  69 NW8       30.00S WCI  -2
BUFFALO WY     CLOUDY     9   2  73 N5        29.92S
CODY           FLURRIES  13   7  77 N9        29.88S WCI   1
YELLOWSTONE LA   N/A      9  -4  55 VRB3      29.67F
IDAHO FALLS    CLOUDY    18   8  65 CALM      29.80F HAZE
SALMON         CLOUDY    14   9  79 CALM      29.88S
BOISE          CLOUDY    25  20  81 SW7       29.94R WCI  17
SPOKANE        MOSUNNY   29  12  49 N13       30.00R WCI  19
$$

REGIONAL REPORTS...ALBERTA

CITY           SKY/WX    TMP DP  RH WIND       PRES   REMARKS
EDMONTON       CLOUDY    -2 -13  60 NW13      30.34R WCI -21
CALGARY        CRYSTALS   0 -11  60 N17       30.18F WCI -21
MEDICINE HAT   FLURRIES   1  -8  66 W13       30.27S WCI -16
WATERTON GATE    N/A      3  -9  55 E6          N/A  WCI  -8
MILK RIVER       N/A      0  -8  71 NW16        N/A  WCI -21
ONEFOUR          N/A     -4  -9  77 NW20        N/A  WCI -27
$$

REGIONAL REPORTS...SASKATCHEWAN

CITY           SKY/WX    TMP DP  RH WIND       PRES   REMARKS
SWIFT CURRENT  PTSUNNY   -4  -8  84 NW24G30   30.08F WCI -29
REGINA         CLOUDY     3  -4  72 NW24G30   30.05R BLWGSNOWWCI -20
SASKATOON      FLURRIES   3  -4  72 NW20      30.15S WCI -18
CYPRESS HILLS    N/A     -9 -15  77 NW10G20     N/A  WCI -28
ROCKGLEN         N/A     -2  -8  78 NW17G29     N/A  WCI -24
ASSINIBOIA       N/A      0  -8  71 NW18        N/A  WCI -22
$$



USA.gov is the U.S. government's official web portal to all federal, state and local government web resources and services.